Time,TemperatureF,DewpointF,PressureIn,WindDirection,WindDirectionDegrees,WindSpeedMPH,WindSpeedGustMPH,Humidity,HourlyPrecipIn,Conditions,Clouds,dailyrainin,SolarRadiationWatts/m^2,SoftwareType,DateUTC
2013-08-01 00:01:00,68.9,65.5,30.03,North,350,0.0,0.0,89,0.00,,,0.00,0,WeatherCatV1.15B25,2013-08-01 05:01:00,
2013-08-01 00:06:00,68.8,65.4,30.03,North,350,0.0,0.0,89,0.00,,,0.00,0,WeatherCatV1.15B25,2013-08-01 05:06:00,
2013-08-01 00:11:00,68.7,65.6,30.03,North,350,0.0,0.0,90,0.00,,,0.00,0,WeatherCatV1.15B25,2013-08-01 05:11:00,
2013-08-01 00:16:00,68.5,65.4,30.03,North,350,0.0,0.0,90,0.00,,,0.00,0,WeatherCatV1.15B25,2013-08-01 05:16:00,
2013-08-01 00:21:00,68.2,65.1,30.02,North,350,0.0,0.0,90,0.00,,,0.00,0,WeatherCatV1.15B25,2013-08-01 05:21:00,
2013-08-01 00:26:00,68.1,65.0,30.02,North,350,0.0,0.0,90,0.00,,,0.00,0,WeatherCatV1.15B25,2013-08-01 05:26:00,
2013-08-01 00:31:00,68.0,65.0,30.02,North,350,0.0,0.0,90,0.00,,,0.00,0,WeatherCatV1.15B25,2013-08-01 05:31:00,
2013-08-01 00:36:00,67.9,65.2,30.02,North,350,0.0,0.0,91,0.00,,,0.00,0,WeatherCatV1.15B25,2013-08-01 05:36:00,
2013-08-01 00:41:00,67.6,64.9,30.02,North,350,0.0,0.0,91,0.00,,,0.00,0,WeatherCatV1.15B25,2013-08-01 05:41:00,
2013-08-01 00:46:00,67.5,64.8,30.02,North,350,0.0,0.0,91,0.00,,,0.00,0,WeatherCatV1.15B25,2013-08-01 05:46:00,
2013-08-01 00:51:00,67.4,64.7,30.02,North,350,0.0,0.0,91,0.00,,,0.00,0,WeatherCatV1.15B25,2013-08-01 05:51:00,
2013-08-01 00:56:00,67.2,64.5,30.02,North,350,0.0,0.0,91,0.00,,,0.00,0,WeatherCatV1.15B25,2013-08-01 05:56:00,
2013-08-01 01:01:00,67.0,64.3,30.02,North,350,0.0,1.0,91,0.00,,,0.00,0,WeatherCatV1.15B25,2013-08-01 06:01:00,
2013-08-01 01:06:00,67.0,64.6,30.02,North,350,0.0,0.0,92,0.00,,,0.00,0,WeatherCatV1.15B25,2013-08-01 06:06:00,
2013-08-01 01:11:00,66.9,64.5,30.01,North,350,0.0,0.0,92,0.00,,,0.00,0,WeatherCatV1.15B25,2013-08-01 06:11:00,
2013-08-01 01:16:00,66.8,64.4,30.01,North,350,0.0,0.0,92,0.00,,,0.00,0,WeatherCatV1.15B25,2013-08-01 06:16:00,
2013-08-01 01:21:00,66.7,64.3,30.01,North,350,0.0,0.0,92,0.00,,,0.00,0,WeatherCatV1.15B25,2013-08-01 06:21:00,
2013-08-01 01:26:00,66.6,64.2,30.01,North,350,0.0,0.0,92,0.00,,,0.00,0,WeatherCatV1.15B25,2013-08-01 06:26:00,
2013-08-01 01:31:00,66.4,64.0,30.01,North,350,0.0,0.0,92,0.00,,,0.00,0,WeatherCatV1.15B25,2013-08-01 06:31:00,
2013-08-01 01:36:00,66.4,64.0,30.01,North,350,0.0,0.0,92,0.00,,,0.00,0,WeatherCatV1.15B25,2013-08-01 06:36:00,
2013-08-01 01:41:00,66.4,64.0,30.01,North,350,0.0,0.0,92,0.00,,,0.00,0,WeatherCatV1.15B25,2013-08-01 06:41:00,
2013-08-01 01:46:00,66.3,63.9,30.02,North,350,0.0,0.0,92,0.00,,,0.00,0,WeatherCatV1.15B25,2013-08-01 06:46:00,
2013-08-01 01:51:00,66.2,64.1,30.02,North,350,0.0,0.0,93,0.00,,,0.00,0,WeatherCatV1.15B25,2013-08-01 06:51:00,
2013-08-01 01:56:00,66.1,64.0,30.01,North,350,0.0,0.0,93,0.00,,,0.00,0,WeatherCatV1.15B25,2013-08-01 06:56:00,
2013-08-01 02:01:00,66.1,64.0,30.01,North,350,0.0,0.0,93,0.00,,,0.00,0,WeatherCatV1.15B25,2013-08-01 07:01:00,
2013-08-01 02:06:00,66.1,64.0,30.01,North,350,0.0,0.0,93,0.00,,,0.00,0,WeatherCatV1.15B25,2013-08-01 07:06:00,
2013-08-01 02:11:00,66.0,63.9,30.02,North,350,0.0,0.0,93,0.00,,,0.00,0,WeatherCatV1.15B25,2013-08-01 07:11:00,
2013-08-01 02:16:00,66.0,63.9,30.02,North,350,0.0,0.0,93,0.00,,,0.00,0,WeatherCatV1.15B25,2013-08-01 07:16:00,
2013-08-01 02:21:00,65.9,63.8,30.02,North,350,0.0,0.0,93,0.00,,,0.00,0,WeatherCatV1.15B25,2013-08-01 07:21:00,
2013-08-01 02:26:00,65.9,63.8,30.01,North,350,0.0,0.0,93,0.00,,,0.00,0,WeatherCatV1.15B25,2013-08-01 07:26:00,
2013-08-01 02:31:00,65.8,63.7,30.02,North,350,0.0,0.0,93,0.00,,,0.00,0,WeatherCatV1.15B25,2013-08-01 07:31:00,
2013-08-01 02:36:00,65.8,63.7,30.01,North,350,0.0,0.0,93,0.00,,,0.00,0,WeatherCatV1.15B25,2013-08-01 07:36:00,
2013-08-01 02:41:00,65.8,63.7,30.01,North,350,0.0,0.0,93,0.00,,,0.00,0,WeatherCatV1.15B25,2013-08-01 07:41:00,
2013-08-01 02:46:00,65.7,63.6,30.01,North,350,0.0,0.0,93,0.00,,,0.00,0,WeatherCatV1.15B25,2013-08-01 07:46:00,
2013-08-01 02:51:00,65.6,63.5,30.01,North,350,0.0,0.0,93,0.00,,,0.00,0,WeatherCatV1.15B25,2013-08-01 07:51:00,
2013-08-01 02:56:00,65.6,63.5,30.02,North,350,0.0,0.0,93,0.00,,,0.00,0,WeatherCatV1.15B25,2013-08-01 07:56:00,
2013-08-01 03:01:00,65.8,64.0,30.02,North,350,0.0,0.0,94,0.00,,,0.00,0,WeatherCatV1.15B25,2013-08-01 08:01:00,
2013-08-01 03:06:00,65.8,64.0,30.01,North,350,0.0,0.0,94,0.00,,,0.00,0,WeatherCatV1.15B25,2013-08-01 08:06:00,
2013-08-01 03:11:00,65.9,64.1,30.01,North,350,0.0,0.0,94,0.00,,,0.00,0,WeatherCatV1.15B25,2013-08-01 08:11:00,
2013-08-01 03:16:00,65.9,64.1,30.01,North,350,0.0,0.0,94,0.00,,,0.00,0,WeatherCatV1.15B25,2013-08-01 08:16:00,
2013-08-01 03:21:00,66.1,64.3,30.01,North,350,0.0,0.0,94,0.00,,,0.00,0,WeatherCatV1.15B25,2013-08-01 08:21:00,
2013-08-01 03:26:00,66.1,64.3,30.00,North,350,0.0,0.0,94,0.00,,,0.00,0,WeatherCatV1.15B25,2013-08-01 08:26:00,
2013-08-01 03:31:00,66.1,64.3,30.00,North,350,0.0,0.0,94,0.00,,,0.00,0,WeatherCatV1.15B25,2013-08-01 08:31:00,
2013-08-01 03:36:00,66.1,64.3,30.00,North,350,0.0,0.0,94,0.00,,,0.00,0,WeatherCatV1.15B25,2013-08-01 08:36:00,
2013-08-01 03:41:00,66.1,64.3,30.00,North,350,0.0,0.0,94,0.00,,,0.00,0,WeatherCatV1.15B25,2013-08-01 08:41:00,
2013-08-01 03:46:00,66.0,64.2,30.00,North,350,0.0,0.0,94,0.00,,,0.00,0,WeatherCatV1.15B25,2013-08-01 08:46:00,
2013-08-01 03:49:00,66.0,64.2,30.00,North,350,0.0,0.0,94,0.00,,,0.00,0,WeatherCatV1.15B25,2013-08-01 08:49:00,
2013-08-01 03:54:00,66.0,64.2,30.00,North,350,0.0,0.0,94,0.00,,,0.00,0,WeatherCatV1.15B25,2013-08-01 08:54:00,
2013-08-01 03:59:00,66.1,64.3,30.00,North,350,0.0,2.0,94,0.00,,,0.00,0,WeatherCatV1.15B25,2013-08-01 08:59:00,
2013-08-01 04:04:00,66.0,64.2,30.00,North,350,0.0,0.0,94,0.00,,,0.00,0,WeatherCatV1.15B25,2013-08-01 09:04:00,
2013-08-01 04:07:00,66.1,64.3,30.00,North,350,0.0,1.0,94,0.00,,,0.00,0,WeatherCatV1.15B25,2013-08-01 09:07:00,
2013-08-01 04:12:00,66.1,64.3,30.01,North,350,0.0,0.0,94,0.00,,,0.00,0,WeatherCatV1.15B25,2013-08-01 09:12:00,
2013-08-01 04:17:00,66.1,64.3,30.00,North,350,0.0,0.0,94,0.00,,,0.00,0,WeatherCatV1.15B25,2013-08-01 09:17:00,
2013-08-01 04:22:00,66.0,64.2,30.01,North,350,0.0,0.0,94,0.00,,,0.00,0,WeatherCatV1.15B25,2013-08-01 09:22:00,
2013-08-01 04:27:00,66.0,64.2,30.00,North,350,0.0,0.0,94,0.00,,,0.00,0,WeatherCatV1.15B25,2013-08-01 09:27:00,
2013-08-01 04:32:00,66.0,64.2,30.00,North,350,0.0,0.0,94,0.00,,,0.00,0,WeatherCatV1.15B25,2013-08-01 09:32:00,
2013-08-01 04:36:00,65.9,64.1,30.00,North,350,0.0,0.0,94,0.00,,,0.00,0,WeatherCatV1.15B25,2013-08-01 09:36:00,
2013-08-01 04:38:00,65.9,64.1,30.00,North,350,0.0,0.0,94,0.00,,,0.00,0,WeatherCatV1.15B25,2013-08-01 09:38:00,
2013-08-01 04:43:00,65.9,64.1,30.00,North,350,0.0,0.0,94,0.00,,,0.00,0,WeatherCatV1.15B25,2013-08-01 09:43:00,
2013-08-01 04:48:00,65.9,64.1,30.00,North,350,0.0,0.0,94,0.00,,,0.00,0,WeatherCatV1.15B25,2013-08-01 09:48:00,
2013-08-01 04:51:00,65.9,64.1,30.00,North,350,0.0,0.0,94,0.00,,,0.00,0,WeatherCatV1.15B25,2013-08-01 09:51:00,
2013-08-01 04:57:00,66.0,64.2,30.00,North,350,0.0,0.0,94,0.00,,,0.00,0,WeatherCatV1.15B25,2013-08-01 09:57:00,
2013-08-01 05:02:00,66.1,64.3,29.99,North,350,0.0,0.0,94,0.00,,,0.00,0,WeatherCatV1.15B25,2013-08-01 10:02:00,
2013-08-01 05:07:00,66.3,64.5,29.99,North,350,0.0,0.0,94,0.00,,,0.00,0,WeatherCatV1.15B25,2013-08-01 10:07:00,
2013-08-01 05:12:00,66.3,64.5,29.99,North,350,0.0,0.0,94,0.00,,,0.00,0,WeatherCatV1.15B25,2013-08-01 10:12:00,
2013-08-01 05:17:00,66.3,64.5,29.99,North,350,0.0,0.0,94,0.00,,,0.00,0,WeatherCatV1.15B25,2013-08-01 10:17:00,
2013-08-01 05:22:00,66.3,64.5,29.98,North,350,0.0,0.0,94,0.00,,,0.00,0,WeatherCatV1.15B25,2013-08-01 10:22:00,
2013-08-01 05:27:00,66.3,64.5,29.99,North,350,0.0,0.0,94,0.00,,,0.00,0,WeatherCatV1.15B25,2013-08-01 10:27:00,
2013-08-01 05:32:00,66.3,64.2,29.99,North,350,0.0,0.0,93,0.00,,,0.00,0,WeatherCatV1.15B25,2013-08-01 10:32:00,
2013-08-01 05:37:00,66.2,64.1,29.99,North,350,0.0,0.0,93,0.00,,,0.00,0,WeatherCatV1.15B25,2013-08-01 10:37:00,
2013-08-01 05:41:00,66.1,64.0,29.99,North,350,0.0,0.0,93,0.00,,,0.00,0,WeatherCatV1.15B25,2013-08-01 10:41:00,
2013-08-01 05:47:00,66.0,63.9,29.99,North,350,0.0,0.0,93,0.00,,,0.00,0,WeatherCatV1.15B25,2013-08-01 10:47:00,
2013-08-01 05:52:00,66.0,63.9,30.00,North,350,0.0,0.0,93,0.00,,,0.00,0,WeatherCatV1.15B25,2013-08-01 10:52:00,
2013-08-01 05:56:00,65.9,63.8,30.00,North,350,0.0,0.0,93,0.00,,,0.00,0,WeatherCatV1.15B25,2013-08-01 10:56:00,
2013-08-01 06:01:00,65.7,63.6,30.00,North,350,0.0,0.0,93,0.00,,,0.00,0,WeatherCatV1.15B25,2013-08-01 11:01:00,
2013-08-01 06:07:00,65.5,63.4,30.00,North,350,0.0,0.0,93,0.00,,,0.00,0,WeatherCatV1.15B25,2013-08-01 11:07:00,
2013-08-01 06:11:00,65.4,63.3,30.00,North,350,0.0,0.0,93,0.00,,,0.00,0,WeatherCatV1.15B25,2013-08-01 11:11:00,
2013-08-01 06:16:00,65.2,63.1,30.01,North,350,0.0,0.0,93,0.00,,,0.00,0,WeatherCatV1.15B25,2013-08-01 11:16:00,
2013-08-01 06:21:00,65.0,62.9,30.01,North,350,0.0,0.0,93,0.00,,,0.00,0,WeatherCatV1.15B25,2013-08-01 11:21:00,
2013-08-01 06:27:00,64.9,62.8,30.01,North,350,0.0,0.0,93,0.00,,,0.00,0,WeatherCatV1.15B25,2013-08-01 11:27:00,
2013-08-01 06:32:00,64.8,62.7,30.01,North,350,0.0,0.0,93,0.00,,,0.00,5,WeatherCatV1.15B25,2013-08-01 11:32:00,
2013-08-01 06:37:00,64.7,62.6,30.01,North,350,0.0,0.0,93,0.00,,,0.00,7,WeatherCatV1.15B25,2013-08-01 11:37:00,
2013-08-01 06:41:00,64.7,62.6,30.01,North,350,0.0,0.0,93,0.00,,,0.00,7,WeatherCatV1.15B25,2013-08-01 11:41:00,
2013-08-01 06:42:00,64.7,62.6,30.01,North,350,0.0,0.0,93,0.00,,,0.00,7,WeatherCatV1.15B25,2013-08-01 11:42:00,
2013-08-01 06:47:00,64.7,62.6,30.01,North,350,0.0,0.0,93,0.00,,,0.00,9,WeatherCatV1.15B25,2013-08-01 11:47:00,
2013-08-01 06:52:00,64.6,62.5,30.01,North,350,0.0,0.0,93,0.00,,,0.00,11,WeatherCatV1.15B25,2013-08-01 11:52:00,
2013-08-01 06:57:00,64.6,62.8,30.01,North,350,0.0,0.0,94,0.00,,,0.00,14,WeatherCatV1.15B25,2013-08-01 11:57:00,
2013-08-01 07:02:00,64.6,62.8,30.01,North,350,0.0,0.0,94,0.00,,,0.00,21,WeatherCatV1.15B25,2013-08-01 12:02:00,
2013-08-01 07:07:00,64.5,62.7,30.01,North,350,0.0,0.0,94,0.00,,,0.00,28,WeatherCatV1.15B25,2013-08-01 12:07:00,
2013-08-01 07:12:00,64.6,62.8,30.01,North,350,0.0,0.0,94,0.00,,,0.00,32,WeatherCatV1.15B25,2013-08-01 12:12:00,
2013-08-01 07:17:00,64.8,63.0,30.01,North,350,0.0,0.0,94,0.00,,,0.00,35,WeatherCatV1.15B25,2013-08-01 12:17:00,
2013-08-01 07:22:00,65.2,63.4,30.01,North,350,0.0,0.0,94,0.00,,,0.00,37,WeatherCatV1.15B25,2013-08-01 12:22:00,
2013-08-01 07:26:00,65.4,63.6,30.01,North,350,0.0,0.0,94,0.00,,,0.00,39,WeatherCatV1.15B25,2013-08-01 12:26:00,
2013-08-01 07:31:00,65.8,64.0,30.00,North,350,0.0,2.0,94,0.00,,,0.00,40,WeatherCatV1.15B25,2013-08-01 12:31:00,
2013-08-01 07:32:00,65.9,64.1,30.00,North,350,1.0,2.0,94,0.00,,,0.00,40,WeatherCatV1.15B25,2013-08-01 12:32:00,
2013-08-01 07:37:00,66.3,64.5,30.00,North,350,0.0,2.0,94,0.00,,,0.00,44,WeatherCatV1.15B25,2013-08-01 12:37:00,
2013-08-01 07:43:00,66.6,64.5,30.00,North,350,0.0,0.0,93,0.00,,,0.00,60,WeatherCatV1.15B25,2013-08-01 12:43:00,
2013-08-01 07:47:00,66.8,64.7,30.00,North,350,0.0,1.0,93,0.00,,,0.00,53,WeatherCatV1.15B25,2013-08-01 12:47:00,
2013-08-01 07:52:00,67.3,65.2,30.00,North,350,0.0,1.0,93,0.00,,,0.00,158,WeatherCatV1.15B25,2013-08-01 12:52:00,
2013-08-01 07:56:00,67.6,65.2,30.00,North,350,0.0,0.0,92,0.00,,,0.00,174,WeatherCatV1.15B25,2013-08-01 12:56:00,
2013-08-01 07:57:00,67.7,65.3,30.00,North,350,0.0,0.0,92,0.00,,,0.00,178,WeatherCatV1.15B25,2013-08-01 12:57:00,
2013-08-01 08:02:00,68.3,65.9,30.00,North,350,0.0,1.0,92,0.00,,,0.00,202,WeatherCatV1.15B25,2013-08-01 13:02:00,
2013-08-01 08:07:00,69.1,66.4,30.00,North,350,0.0,0.0,91,0.00,,,0.00,213,WeatherCatV1.15B25,2013-08-01 13:07:00,
2013-08-01 08:11:00,69.5,66.4,30.00,North,350,0.0,0.0,90,0.00,,,0.00,221,WeatherCatV1.15B25,2013-08-01 13:11:00,
2013-08-01 08:17:00,70.1,66.4,30.00,North,350,0.0,1.0,88,0.00,,,0.00,204,WeatherCatV1.15B25,2013-08-01 13:17:00,
2013-08-01 08:22:00,70.6,66.5,30.00,North,350,2.0,3.0,87,0.00,,,0.00,264,WeatherCatV1.15B25,2013-08-01 13:22:00,
2013-08-01 08:27:00,71.1,67.0,30.00,North,350,0.0,6.0,87,0.00,,,0.00,306,WeatherCatV1.15B25,2013-08-01 13:27:00,
2013-08-01 08:32:00,71.7,67.3,30.00,North,350,0.0,5.0,86,0.00,,,0.00,306,WeatherCatV1.15B25,2013-08-01 13:32:00,
2013-08-01 08:37:00,71.9,67.1,30.00,North,350,0.0,1.0,85,0.00,,,0.00,200,WeatherCatV1.15B25,2013-08-01 13:37:00,
2013-08-01 08:42:00,72.2,67.1,30.00,North,350,0.0,4.0,84,0.00,,,0.00,257,WeatherCatV1.15B25,2013-08-01 13:42:00,
2013-08-01 08:47:00,72.4,66.9,30.00,North,350,0.0,3.0,83,0.00,,,0.00,225,WeatherCatV1.15B25,2013-08-01 13:47:00,
2013-08-01 08:51:00,72.7,67.2,30.00,North,350,2.0,5.0,83,0.00,,,0.00,332,WeatherCatV1.15B25,2013-08-01 13:51:00,
2013-08-01 08:54:00,72.9,67.1,30.00,North,350,2.0,3.0,82,0.00,,,0.00,260,WeatherCatV1.15B25,2013-08-01 13:54:00,
2013-08-01 08:59:00,73.0,67.5,30.00,North,350,0.0,1.0,83,0.00,,,0.00,156,WeatherCatV1.15B25,2013-08-01 13:59:00,
2013-08-01 09:00:00,73.0,67.5,30.00,North,350,0.0,0.0,83,0.00,,,0.00,156,WeatherCatV1.15B25,2013-08-01 14:00:00,
2013-08-01 09:04:00,73.0,67.5,29.99,North,350,3.0,6.0,83,0.00,,,0.00,137,WeatherCatV1.15B25,2013-08-01 14:04:00,
2013-08-01 09:07:00,73.0,67.5,29.99,North,350,2.0,4.0,83,0.00,,,0.00,149,WeatherCatV1.15B25,2013-08-01 14:07:00,
2013-08-01 09:11:00,72.9,67.1,29.99,North,350,0.0,7.0,82,0.00,,,0.00,179,WeatherCatV1.15B25,2013-08-01 14:11:00,
2013-08-01 09:12:00,73.0,67.2,29.99,NNW,348,7.0,7.0,82,0.00,,,0.00,195,WeatherCatV1.15B25,2013-08-01 14:12:00,
2013-08-01 09:17:00,73.0,67.2,29.98,NNW,348,3.0,5.0,82,0.00,,,0.00,181,WeatherCatV1.15B25,2013-08-01 14:17:00,
2013-08-01 09:22:00,73.1,67.3,29.99,NNW,346,1.0,3.0,82,0.00,,,0.00,165,WeatherCatV1.15B25,2013-08-01 14:22:00,
2013-08-01 09:27:00,73.7,67.8,29.99,NW,326,1.0,3.0,82,0.00,,,0.00,320,WeatherCatV1.15B25,2013-08-01 14:27:00,
2013-08-01 09:31:00,74.3,68.1,29.99,NW,326,5.0,5.0,81,0.00,,,0.00,466,WeatherCatV1.15B25,2013-08-01 14:31:00,
2013-08-01 09:37:00,75.1,68.1,29.99,WNW,296,5.0,7.0,79,0.00,,,0.00,359,WeatherCatV1.15B25,2013-08-01 14:37:00,
2013-08-01 09:42:00,75.5,68.1,29.99,SW,221,9.0,10.0,78,0.00,,,0.00,559,WeatherCatV1.15B25,2013-08-01 14:42:00,
2013-08-01 09:47:00,76.3,68.5,29.99,SW,215,1.0,7.0,77,0.00,,,0.00,575,WeatherCatV1.15B25,2013-08-01 14:47:00,
2013-08-01 09:52:00,77.1,68.9,29.98,SSW,213,6.0,9.0,76,0.00,,,0.00,591,WeatherCatV1.15B25,2013-08-01 14:52:00,
2013-08-01 09:56:00,77.3,68.3,29.98,SSW,206,1.0,6.0,74,0.00,,,0.00,601,WeatherCatV1.15B25,2013-08-01 14:56:00,
2013-08-01 10:02:00,77.6,68.6,29.98,SSW,210,5.0,5.0,74,0.00,,,0.00,626,WeatherCatV1.15B25,2013-08-01 15:02:00,
2013-08-01 10:07:00,77.8,68.8,29.98,SSW,198,9.0,10.0,74,0.00,,,0.00,619,WeatherCatV1.15B25,2013-08-01 15:07:00,
2013-08-01 10:11:00,78.1,68.7,29.98,South,188,4.0,6.0,73,0.00,,,0.00,606,WeatherCatV1.15B25,2013-08-01 15:11:00,
2013-08-01 10:17:00,78.4,69.0,29.98,SSW,199,2.0,3.0,73,0.00,,,0.00,615,WeatherCatV1.15B25,2013-08-01 15:17:00,
2013-08-01 10:22:00,78.6,68.8,29.98,SSW,198,1.0,10.0,72,0.00,,,0.00,629,WeatherCatV1.15B25,2013-08-01 15:22:00,
2013-08-01 10:27:00,78.7,68.9,29.98,South,187,5.0,13.0,72,0.00,,,0.00,635,WeatherCatV1.15B25,2013-08-01 15:27:00,
2013-08-01 10:32:00,78.9,69.1,29.98,South,187,0.0,7.0,72,0.00,,,0.00,647,WeatherCatV1.15B25,2013-08-01 15:32:00,
2013-08-01 10:36:00,79.1,68.9,29.98,South,188,4.0,7.0,71,0.00,,,0.00,661,WeatherCatV1.15B25,2013-08-01 15:36:00,
2013-08-01 10:41:00,79.8,69.1,29.98,South,190,0.0,6.0,70,0.00,,,0.00,680,WeatherCatV1.15B25,2013-08-01 15:41:00,
2013-08-01 10:42:00,80.1,69.4,29.98,South,190,3.0,3.0,70,0.00,,,0.00,680,WeatherCatV1.15B25,2013-08-01 15:42:00,
2013-08-01 10:47:00,80.5,68.9,29.98,South,184,3.0,8.0,68,0.00,,,0.00,698,WeatherCatV1.15B25,2013-08-01 15:47:00,
2013-08-01 10:52:00,80.3,69.2,29.98,South,178,2.0,3.0,69,0.00,,,0.00,708,WeatherCatV1.15B25,2013-08-01 15:52:00,
2013-08-01 10:57:00,80.5,69.8,29.98,South,178,5.0,6.0,70,0.00,,,0.00,717,WeatherCatV1.15B25,2013-08-01 15:57:00,
2013-08-01 11:02:00,80.9,69.3,29.98,SSE,157,2.0,10.0,68,0.00,,,0.00,731,WeatherCatV1.15B25,2013-08-01 16:02:00,
2013-08-01 11:07:00,80.9,69.3,29.98,South,174,4.0,5.0,68,0.00,,,0.00,742,WeatherCatV1.15B25,2013-08-01 16:07:00,
2013-08-01 11:12:00,81.3,69.7,29.98,South,173,6.0,6.0,68,0.00,,,0.00,758,WeatherCatV1.15B25,2013-08-01 16:12:00,
2013-08-01 11:17:00,81.3,69.7,29.98,South,172,1.0,3.0,68,0.00,,,0.00,766,WeatherCatV1.15B25,2013-08-01 16:17:00,
2013-08-01 11:22:00,81.0,69.0,29.99,SSE,149,1.0,5.0,67,0.00,,,0.00,789,WeatherCatV1.15B25,2013-08-01 16:22:00,
2013-08-01 11:28:00,80.9,68.4,29.99,SSE,162,1.0,5.0,66,0.00,,,0.00,789,WeatherCatV1.15B25,2013-08-01 16:28:00,
2013-08-01 11:32:00,80.6,69.5,29.99,South,169,0.0,6.0,69,0.00,,,0.00,877,WeatherCatV1.15B25,2013-08-01 16:32:00,
2013-08-01 11:37:00,81.6,70.0,29.99,SSE,168,5.0,5.0,68,0.00,,,0.00,881,WeatherCatV1.15B25,2013-08-01 16:37:00,
2013-08-01 11:41:00,81.9,70.3,29.99,SSE,167,0.0,5.0,68,0.00,,,0.00,853,WeatherCatV1.15B25,2013-08-01 16:41:00,
2013-08-01 11:46:00,82.7,69.7,29.98,SSE,167,4.0,7.0,65,0.00,,,0.00,872,WeatherCatV1.15B25,2013-08-01 16:46:00,
2013-08-01 11:52:00,82.6,69.6,29.98,SSE,157,4.0,9.0,65,0.00,,,0.00,800,WeatherCatV1.15B25,2013-08-01 16:52:00,
2013-08-01 11:57:00,82.6,70.9,29.98,SSE,158,0.0,7.0,68,0.00,,,0.00,844,WeatherCatV1.15B25,2013-08-01 16:57:00,
2013-08-01 12:01:00,82.5,68.1,29.99,SE,141,5.0,10.0,62,0.00,,,0.00,833,WeatherCatV1.15B25,2013-08-01 17:01:00,
2013-08-01 12:02:00,82.5,68.1,29.99,SE,141,2.0,10.0,62,0.00,,,0.00,833,WeatherCatV1.15B25,2013-08-01 17:02:00,
2013-08-01 12:07:00,83.0,69.5,29.98,SE,145,7.0,7.0,64,0.00,,,0.00,879,WeatherCatV1.15B25,2013-08-01 17:07:00,
2013-08-01 12:12:00,83.2,70.2,29.98,SSE,153,3.0,5.0,65,0.00,,,0.00,939,WeatherCatV1.15B25,2013-08-01 17:12:00,
2013-08-01 12:16:00,82.9,69.0,29.98,SE,134,3.0,10.0,63,0.00,,,0.00,933,WeatherCatV1.15B25,2013-08-01 17:16:00,
2013-08-01 12:22:00,83.1,70.1,29.97,SSE,148,6.0,10.0,65,0.00,,,0.00,902,WeatherCatV1.15B25,2013-08-01 17:22:00,
2013-08-01 12:26:00,83.2,69.7,29.97,SSE,164,4.0,9.0,64,0.00,,,0.00,870,WeatherCatV1.15B25,2013-08-01 17:26:00,
2013-08-01 12:27:00,83.2,69.3,29.97,SSE,164,6.0,9.0,63,0.00,,,0.00,893,WeatherCatV1.15B25,2013-08-01 17:27:00,
2013-08-01 12:32:00,83.0,69.5,29.97,SSE,159,0.0,10.0,64,0.00,,,0.00,898,WeatherCatV1.15B25,2013-08-01 17:32:00,
2013-08-01 12:37:00,83.0,70.4,29.96,South,182,1.0,6.0,66,0.00,,,0.00,926,WeatherCatV1.15B25,2013-08-01 17:37:00,
2013-08-01 12:41:00,82.9,69.9,29.96,South,181,5.0,7.0,65,0.00,,,0.00,912,WeatherCatV1.15B25,2013-08-01 17:41:00,
2013-08-01 12:47:00,83.4,69.5,29.96,South,184,3.0,6.0,63,0.00,,,0.00,928,WeatherCatV1.15B25,2013-08-01 17:47:00,
2013-08-01 12:51:00,83.6,69.6,29.96,South,186,5.0,9.0,63,0.00,,,0.00,965,WeatherCatV1.15B25,2013-08-01 17:51:00,
2013-08-01 12:53:00,83.7,69.7,29.96,South,178,6.0,10.0,63,0.00,,,0.00,981,WeatherCatV1.15B25,2013-08-01 17:53:00,
2013-08-01 12:58:00,83.8,69.4,29.95,SSW,192,0.0,10.0,62,0.00,,,0.00,942,WeatherCatV1.15B25,2013-08-01 17:58:00,
2013-08-01 13:03:00,83.8,69.8,29.95,South,169,3.0,9.0,63,0.00,,,0.00,744,WeatherCatV1.15B25,2013-08-01 18:03:00,
2013-08-01 13:06:00,83.3,70.3,29.95,South,172,3.0,5.0,65,0.00,,,0.00,441,WeatherCatV1.15B25,2013-08-01 18:06:00,
2013-08-01 13:11:00,82.8,69.3,29.95,SSE,147,5.0,10.0,64,0.00,,,0.00,457,WeatherCatV1.15B25,2013-08-01 18:11:00,
2013-08-01 13:12:00,82.9,69.9,29.95,SSE,147,2.0,3.0,65,0.00,,,0.00,457,WeatherCatV1.15B25,2013-08-01 18:12:00,
2013-08-01 13:17:00,82.9,69.9,29.95,SE,146,2.0,6.0,65,0.00,,,0.00,710,WeatherCatV1.15B25,2013-08-01 18:17:00,
2013-08-01 13:22:00,83.6,70.1,29.94,SSE,168,6.0,10.0,64,0.00,,,0.00,687,WeatherCatV1.15B25,2013-08-01 18:22:00,
2013-08-01 13:27:00,83.5,68.6,29.94,SSW,197,6.0,10.0,61,0.00,,,0.00,587,WeatherCatV1.15B25,2013-08-01 18:27:00,
2013-08-01 13:32:00,83.4,69.0,29.94,South,178,2.0,8.0,62,0.00,,,0.00,744,WeatherCatV1.15B25,2013-08-01 18:32:00,
2013-08-01 13:37:00,83.4,69.0,29.94,SSW,205,0.0,5.0,62,0.00,,,0.00,464,WeatherCatV1.15B25,2013-08-01 18:37:00,
2013-08-01 13:42:00,83.2,68.8,29.93,SSW,192,2.0,9.0,62,0.00,,,0.00,483,WeatherCatV1.15B25,2013-08-01 18:42:00,
2013-08-01 13:47:00,82.9,69.0,29.93,SSE,165,2.0,10.0,63,0.00,,,0.00,487,WeatherCatV1.15B25,2013-08-01 18:47:00,
2013-08-01 13:52:00,83.1,69.6,29.92,South,186,6.0,7.0,64,0.00,,,0.00,501,WeatherCatV1.15B25,2013-08-01 18:52:00,
2013-08-01 13:57:00,83.6,69.6,29.92,SE,144,3.0,12.0,63,0.00,,,0.00,962,WeatherCatV1.15B25,2013-08-01 18:57:00,
2013-08-01 14:02:00,84.1,69.6,29.92,SSE,150,3.0,14.0,62,0.00,,,0.00,617,WeatherCatV1.15B25,2013-08-01 19:02:00,
2013-08-01 14:07:00,84.1,68.7,29.91,SSW,196,9.0,9.0,60,0.00,,,0.00,969,WeatherCatV1.15B25,2013-08-01 19:07:00,
2013-08-01 14:11:00,84.3,68.4,29.91,SSW,194,7.0,11.0,59,0.00,,,0.00,969,WeatherCatV1.15B25,2013-08-01 19:11:00,
2013-08-01 14:16:00,83.8,68.4,29.90,SSE,164,4.0,11.0,60,0.00,,,0.00,686,WeatherCatV1.15B25,2013-08-01 19:16:00,
2013-08-01 14:22:00,83.9,69.0,29.90,SSW,197,21.0,21.0,61,0.00,,,0.00,652,WeatherCatV1.15B25,2013-08-01 19:22:00,
2013-08-01 14:27:00,83.8,69.4,29.90,SSW,196,0.0,9.0,62,0.00,,,0.00,483,WeatherCatV1.15B25,2013-08-01 19:27:00,
2013-08-01 14:31:00,83.4,69.0,29.90,South,172,9.0,13.0,62,0.00,,,0.00,334,WeatherCatV1.15B25,2013-08-01 19:31:00,
2013-08-01 14:37:00,82.9,69.0,29.89,South,173,5.0,13.0,63,0.00,,,0.00,308,WeatherCatV1.15B25,2013-08-01 19:37:00,
2013-08-01 14:42:00,83.2,69.7,29.88,SSE,152,0.0,12.0,64,0.00,,,0.00,315,WeatherCatV1.15B25,2013-08-01 19:42:00,
2013-08-01 14:46:00,83.9,69.5,29.88,South,169,13.0,15.0,62,0.00,,,0.00,949,WeatherCatV1.15B25,2013-08-01 19:46:00,
2013-08-01 14:47:00,84.0,70.0,29.88,SSW,198,9.0,15.0,63,0.00,,,0.00,949,WeatherCatV1.15B25,2013-08-01 19:47:00,
2013-08-01 14:51:00,84.5,70.5,29.87,SSW,200,7.0,10.0,63,0.00,,,0.00,916,WeatherCatV1.15B25,2013-08-01 19:51:00,
2013-08-01 14:52:00,84.7,70.2,29.87,SSW,192,14.0,14.0,62,0.00,,,0.00,916,WeatherCatV1.15B25,2013-08-01 19:52:00,
2013-08-01 14:58:00,84.4,70.4,29.86,SE,143,4.0,9.0,63,0.00,,,0.00,534,WeatherCatV1.15B25,2013-08-01 19:58:00,
2013-08-01 15:03:00,84.9,70.4,29.86,SE,144,3.0,14.0,62,0.00,,,0.00,930,WeatherCatV1.15B25,2013-08-01 20:03:00,
2013-08-01 15:08:00,84.6,70.1,29.85,SSE,165,3.0,14.0,62,0.00,,,0.00,930,WeatherCatV1.15B25,2013-08-01 20:08:00,
2013-08-01 15:13:00,84.8,70.3,29.85,SW,236,9.0,12.0,62,0.00,,,0.00,958,WeatherCatV1.15B25,2013-08-01 20:13:00,
2013-08-01 15:17:00,84.8,68.8,29.85,South,190,7.0,16.0,59,0.00,,,0.00,870,WeatherCatV1.15B25,2013-08-01 20:17:00,
2013-08-01 15:22:00,85.2,70.2,29.85,SSW,203,17.0,17.0,61,0.00,,,0.00,870,WeatherCatV1.15B25,2013-08-01 20:22:00,
2013-08-01 15:27:00,85.8,70.3,29.85,SW,220,7.0,16.0,60,0.00,,,0.00,867,WeatherCatV1.15B25,2013-08-01 20:27:00,
2013-08-01 15:31:00,86.2,70.2,29.85,SSE,149,6.0,10.0,59,0.00,,,0.00,211,WeatherCatV1.15B25,2013-08-01 20:31:00,
2013-08-01 15:32:00,86.2,70.2,29.85,SE,145,7.0,10.0,59,0.00,,,0.00,211,WeatherCatV1.15B25,2013-08-01 20:32:00,
2013-08-01 15:37:00,85.6,69.1,29.85,South,175,5.0,25.0,58,0.00,,,0.00,418,WeatherCatV1.15B25,2013-08-01 20:37:00,
2013-08-01 15:42:00,84.9,68.9,29.84,SSW,209,12.0,19.0,59,0.00,,,0.00,891,WeatherCatV1.15B25,2013-08-01 20:42:00,
2013-08-01 15:47:00,85.5,70.0,29.84,South,182,5.0,10.0,60,0.00,,,0.00,865,WeatherCatV1.15B25,2013-08-01 20:47:00,
2013-08-01 15:52:00,86.1,69.1,29.84,SSW,206,5.0,20.0,57,0.00,,,0.00,824,WeatherCatV1.15B25,2013-08-01 20:52:00,
2013-08-01 15:57:00,86.4,70.8,29.83,SSW,194,0.0,10.0,60,0.00,,,0.00,802,WeatherCatV1.15B25,2013-08-01 20:57:00,
2013-08-01 16:02:00,86.4,69.3,29.83,South,188,11.0,19.0,57,0.00,,,0.00,793,WeatherCatV1.15B25,2013-08-01 21:02:00,
2013-08-01 16:07:00,86.3,69.2,29.83,SSW,210,13.0,17.0,57,0.00,,,0.00,752,WeatherCatV1.15B25,2013-08-01 21:07:00,
2013-08-01 16:12:00,86.2,70.2,29.83,SSW,210,6.0,12.0,59,0.00,,,0.00,779,WeatherCatV1.15B25,2013-08-01 21:12:00,
2013-08-01 16:17:00,86.5,69.4,29.83,SSW,194,7.0,20.0,57,0.00,,,0.00,765,WeatherCatV1.15B25,2013-08-01 21:17:00,
2013-08-01 16:21:00,86.6,69.5,29.83,South,188,6.0,15.0,57,0.00,,,0.00,772,WeatherCatV1.15B25,2013-08-01 21:21:00,
2013-08-01 16:26:00,86.6,69.5,29.83,SSW,196,10.0,15.0,57,0.00,,,0.00,835,WeatherCatV1.15B25,2013-08-01 21:26:00,
2013-08-01 16:32:00,86.3,69.7,29.83,SSE,159,6.0,10.0,58,0.00,,,0.00,775,WeatherCatV1.15B25,2013-08-01 21:32:00,
2013-08-01 16:37:00,85.8,69.8,29.83,South,178,9.0,11.0,59,0.00,,,0.00,497,WeatherCatV1.15B25,2013-08-01 21:37:00,
2013-08-01 16:42:00,85.9,69.9,29.83,South,190,5.0,13.0,59,0.00,,,0.00,577,WeatherCatV1.15B25,2013-08-01 21:42:00,
2013-08-01 16:46:00,86.0,69.5,29.82,SW,225,15.0,15.0,58,0.00,,,0.00,264,WeatherCatV1.15B25,2013-08-01 21:46:00,
2013-08-01 16:52:00,85.2,69.2,29.82,SE,126,3.0,19.0,59,0.00,,,0.00,353,WeatherCatV1.15B25,2013-08-01 21:52:00,
2013-08-01 16:56:00,85.8,69.8,29.82,SE,126,4.0,12.0,59,0.00,,,0.00,844,WeatherCatV1.15B25,2013-08-01 21:56:00,
2013-08-01 17:02:00,86.3,70.2,29.82,SW,215,9.0,10.0,59,0.00,,,0.00,844,WeatherCatV1.15B25,2013-08-01 22:02:00,
2013-08-01 17:07:00,86.2,69.7,29.81,SSW,207,9.0,16.0,58,0.00,,,0.00,698,WeatherCatV1.15B25,2013-08-01 22:07:00,
2013-08-01 17:11:00,86.2,69.7,29.81,South,177,4.0,16.0,58,0.00,,,0.00,626,WeatherCatV1.15B25,2013-08-01 22:11:00,
2013-08-01 17:17:00,86.0,69.5,29.81,SW,215,13.0,17.0,58,0.00,,,0.00,603,WeatherCatV1.15B25,2013-08-01 22:17:00,
2013-08-01 17:21:00,85.8,69.3,29.81,South,181,10.0,17.0,58,0.00,,,0.00,487,WeatherCatV1.15B25,2013-08-01 22:21:00,
2013-08-01 17:22:00,85.7,69.2,29.81,SSW,196,3.0,17.0,58,0.00,,,0.00,487,WeatherCatV1.15B25,2013-08-01 22:22:00,
2013-08-01 17:27:00,85.8,69.3,29.80,SSW,192,6.0,15.0,58,0.00,,,0.00,575,WeatherCatV1.15B25,2013-08-01 22:27:00,
2013-08-01 17:32:00,86.2,70.2,29.80,SSW,205,4.0,10.0,59,0.00,,,0.00,526,WeatherCatV1.15B25,2013-08-01 22:32:00,
2013-08-01 17:36:00,86.6,70.0,29.80,South,186,4.0,16.0,58,0.00,,,0.00,519,WeatherCatV1.15B25,2013-08-01 22:36:00,
2013-08-01 17:37:00,86.6,69.5,29.80,SSE,156,3.0,14.0,57,0.00,,,0.00,517,WeatherCatV1.15B25,2013-08-01 22:37:00,
2013-08-01 17:42:00,86.3,69.7,29.80,SSE,148,5.0,10.0,58,0.00,,,0.00,526,WeatherCatV1.15B25,2013-08-01 22:42:00,
2013-08-01 17:46:00,86.3,69.2,29.80,South,190,5.0,10.0,57,0.00,,,0.00,510,WeatherCatV1.15B25,2013-08-01 22:46:00,
2013-08-01 17:52:00,86.3,69.7,29.81,South,179,6.0,13.0,58,0.00,,,0.00,504,WeatherCatV1.15B25,2013-08-01 22:52:00,
2013-08-01 17:57:00,86.1,70.1,29.81,SW,217,7.0,10.0,59,0.00,,,0.00,494,WeatherCatV1.15B25,2013-08-01 22:57:00,
2013-08-01 18:01:00,86.1,69.6,29.81,SSW,209,7.0,10.0,58,0.00,,,0.00,473,WeatherCatV1.15B25,2013-08-01 23:01:00,
2013-08-01 18:06:00,86.3,70.2,29.81,West,263,4.0,6.0,59,0.00,,,0.00,459,WeatherCatV1.15B25,2013-08-01 23:06:00,
2013-08-01 18:12:00,86.5,70.4,29.81,SSW,195,4.0,14.0,59,0.00,,,0.00,454,WeatherCatV1.15B25,2013-08-01 23:12:00,
2013-08-01 18:16:00,86.3,69.7,29.81,SSE,150,1.0,8.0,58,0.00,,,0.00,446,WeatherCatV1.15B25,2013-08-01 23:16:00,
2013-08-01 18:21:00,86.1,69.6,29.81,ESE,123,5.0,16.0,58,0.00,,,0.00,366,WeatherCatV1.15B25,2013-08-01 23:21:00,
2013-08-01 18:26:00,85.9,70.4,29.81,SSW,196,4.0,6.0,60,0.00,,,0.00,374,WeatherCatV1.15B25,2013-08-01 23:26:00,
2013-08-01 18:32:00,85.7,70.2,29.81,SE,132,8.0,12.0,60,0.00,,,0.00,388,WeatherCatV1.15B25,2013-08-01 23:32:00,
2013-08-01 18:37:00,85.7,70.2,29.80,SSE,165,2.0,10.0,60,0.00,,,0.00,390,WeatherCatV1.15B25,2013-08-01 23:37:00,
2013-08-01 18:42:00,85.9,70.4,29.80,SSE,156,0.0,7.0,60,0.00,,,0.00,380,WeatherCatV1.15B25,2013-08-01 23:42:00,
2013-08-01 18:47:00,85.7,69.7,29.79,SSE,158,4.0,13.0,59,0.00,,,0.00,366,WeatherCatV1.15B25,2013-08-01 23:47:00,
2013-08-01 18:52:00,85.5,70.0,29.79,SSW,204,4.0,9.0,60,0.00,,,0.00,239,WeatherCatV1.15B25,2013-08-01 23:52:00,
2013-08-01 18:56:00,85.4,69.9,29.79,South,176,0.0,11.0,60,0.00,,,0.00,348,WeatherCatV1.15B25,2013-08-01 23:56:00,
2013-08-01 18:57:00,85.4,69.9,29.79,SE,132,3.0,8.0,60,0.00,,,0.00,366,WeatherCatV1.15B25,2013-08-01 23:57:00,
2013-08-01 19:02:00,85.4,69.9,29.79,SSE,154,4.0,11.0,60,0.00,,,0.00,251,WeatherCatV1.15B25,2013-08-02 00:02:00,
2013-08-01 19:06:00,85.0,69.5,29.79,SE,131,0.0,13.0,60,0.00,,,0.00,88,WeatherCatV1.15B25,2013-08-02 00:06:00,
2013-08-01 19:11:00,84.4,69.4,29.80,SSW,199,0.0,3.0,61,0.00,,,0.00,181,WeatherCatV1.15B25,2013-08-02 00:11:00,
2013-08-01 19:16:00,84.2,69.3,29.80,South,188,2.0,10.0,61,0.00,,,0.00,118,WeatherCatV1.15B25,2013-08-02 00:16:00,
2013-08-01 19:17:00,84.2,69.3,29.80,South,188,0.0,10.0,61,0.00,,,0.00,109,WeatherCatV1.15B25,2013-08-02 00:17:00,
2013-08-01 19:22:00,83.9,69.9,29.81,South,186,5.0,6.0,63,0.00,,,0.00,77,WeatherCatV1.15B25,2013-08-02 00:22:00,
2013-08-01 19:27:00,83.7,69.7,29.80,SE,141,5.0,11.0,63,0.00,,,0.00,62,WeatherCatV1.15B25,2013-08-02 00:27:00,
2013-08-01 19:31:00,83.5,70.0,29.80,SSE,148,6.0,9.0,64,0.00,,,0.00,67,WeatherCatV1.15B25,2013-08-02 00:31:00,
2013-08-01 19:36:00,83.2,69.7,29.81,SE,144,0.0,2.0,64,0.00,,,0.00,54,WeatherCatV1.15B25,2013-08-02 00:36:00,
2013-08-01 19:42:00,83.1,70.1,29.80,SE,142,2.0,5.0,65,0.00,,,0.00,74,WeatherCatV1.15B25,2013-08-02 00:42:00,
2013-08-01 19:46:00,83.0,70.0,29.80,SE,136,4.0,7.0,65,0.00,,,0.00,67,WeatherCatV1.15B25,2013-08-02 00:46:00,
2013-08-01 19:51:00,83.0,70.0,29.80,SE,133,0.0,5.0,65,0.00,,,0.00,54,WeatherCatV1.15B25,2013-08-02 00:51:00,
2013-08-01 19:57:00,82.7,69.7,29.80,ESE,118,3.0,5.0,65,0.00,,,0.00,37,WeatherCatV1.15B25,2013-08-02 00:57:00,
2013-08-01 20:02:00,82.4,69.9,29.79,ESE,121,1.0,7.0,66,0.00,,,0.00,33,WeatherCatV1.15B25,2013-08-02 01:02:00,
2013-08-01 20:07:00,82.0,69.5,29.78,SE,136,1.0,8.0,66,0.00,,,0.00,25,WeatherCatV1.15B25,2013-08-02 01:07:00,
2013-08-01 20:11:00,81.7,69.6,29.79,ESE,120,2.0,9.0,67,0.00,,,0.00,14,WeatherCatV1.15B25,2013-08-02 01:11:00,
2013-08-01 20:16:00,80.8,67.5,29.79,East,80,7.0,8.0,64,0.00,,,0.00,0,WeatherCatV1.15B25,2013-08-02 01:16:00,
2013-08-01 20:21:00,76.1,65.2,29.79,ESE,113,4.0,10.0,69,0.00,,,0.00,0,WeatherCatV1.15B25,2013-08-02 01:21:00,
2013-08-01 20:26:00,73.7,64.9,29.79,ESE,107,5.0,11.0,74,0.00,,,0.00,0,WeatherCatV1.15B25,2013-08-02 01:26:00,
2013-08-01 20:32:00,72.7,64.7,29.78,ESE,119,2.0,13.0,76,0.00,,,0.00,0,WeatherCatV1.15B25,2013-08-02 01:32:00,
2013-08-01 20:37:00,72.0,64.0,29.78,East,97,5.0,15.0,76,0.00,,,0.00,0,WeatherCatV1.15B25,2013-08-02 01:37:00,
2013-08-01 20:42:00,71.7,64.1,29.78,SE,130,4.0,10.0,77,0.00,,,0.00,0,WeatherCatV1.15B25,2013-08-02 01:42:00,
2013-08-01 20:47:00,71.2,63.6,29.78,East,81,4.0,12.0,77,0.00,,,0.00,0,WeatherCatV1.15B25,2013-08-02 01:47:00,
2013-08-01 20:52:00,71.0,63.8,29.80,NNW,346,1.0,6.0,78,0.00,,,0.00,0,WeatherCatV1.15B25,2013-08-02 01:52:00,
2013-08-01 20:57:00,71.0,63.8,29.84,North,11,8.0,18.0,78,0.00,,,0.00,0,WeatherCatV1.15B25,2013-08-02 01:57:00,
2013-08-01 21:02:00,71.0,64.1,29.83,NNE,14,11.0,11.0,79,0.00,,,0.00,0,WeatherCatV1.15B25,2013-08-02 02:02:00,
2013-08-01 21:07:00,70.8,65.0,29.82,North,351,2.0,15.0,82,0.00,,,0.00,0,WeatherCatV1.15B25,2013-08-02 02:07:00,
2013-08-01 21:12:00,71.2,65.4,29.85,ENE,66,10.0,10.0,82,0.00,,,0.01,0,WeatherCatV1.15B25,2013-08-02 02:12:00,
2013-08-01 21:17:00,70.5,65.4,29.83,SE,128,2.0,6.0,84,0.15,,,0.02,0,WeatherCatV1.15B25,2013-08-02 02:17:00,
2013-08-01 21:22:00,70.4,65.7,29.85,NNE,14,0.0,4.0,85,0.07,,,0.02,0,WeatherCatV1.15B25,2013-08-02 02:22:00,
2013-08-01 21:26:00,69.9,65.5,29.87,ESE,107,4.0,9.0,86,1.45,,,0.05,0,WeatherCatV1.15B25,2013-08-02 02:26:00,
2013-08-01 21:32:00,69.2,65.5,29.89,ENE,61,3.0,7.0,88,0.39,,,0.11,0,WeatherCatV1.15B25,2013-08-02 02:32:00,
2013-08-01 21:37:00,68.2,64.5,29.89,NE,38,6.0,18.0,88,3.65,,,0.26,0,WeatherCatV1.15B25,2013-08-02 02:37:00,
2013-08-01 21:42:00,67.2,63.8,29.87,ENE,69,9.0,15.0,89,3.10,,,0.40,0,WeatherCatV1.15B25,2013-08-02 02:42:00,
2013-08-01 21:46:00,66.9,63.9,29.87,ESE,113,7.0,17.0,90,1.29,,,0.59,0,WeatherCatV1.15B25,2013-08-02 02:46:00,
2013-08-01 21:47:00,66.9,64.2,29.86,ESE,117,8.0,21.0,91,1.11,,,0.60,0,WeatherCatV1.15B25,2013-08-02 02:47:00,
2013-08-01 21:51:00,66.7,64.0,29.85,East,97,9.0,15.0,91,0.53,,,0.65,0,WeatherCatV1.15B25,2013-08-02 02:51:00,
2013-08-01 21:57:00,66.5,64.1,29.79,SE,139,9.0,16.0,92,0.20,,,0.67,0,WeatherCatV1.15B25,2013-08-02 02:57:00,
2013-08-01 22:02:00,66.7,64.3,29.78,East,92,9.0,20.0,92,0.10,,,0.68,0,WeatherCatV1.15B25,2013-08-02 03:02:00,
2013-08-01 22:06:00,66.9,64.5,29.80,SE,131,4.0,4.0,92,0.10,,,0.68,0,WeatherCatV1.15B25,2013-08-02 03:06:00,
2013-08-01 22:12:00,67.0,64.6,29.81,South,188,5.0,10.0,92,0.07,,,0.69,0,WeatherCatV1.15B25,2013-08-02 03:12:00,
2013-08-01 22:17:00,67.2,65.1,29.81,South,188,7.0,7.0,93,0.22,,,0.71,0,WeatherCatV1.15B25,2013-08-02 03:17:00,
2013-08-01 22:22:00,67.2,65.1,29.79,SW,216,11.0,14.0,93,0.09,,,0.71,0,WeatherCatV1.15B25,2013-08-02 03:22:00,
2013-08-01 22:27:00,67.0,64.9,29.81,South,186,6.0,18.0,93,0.08,,,0.72,0,WeatherCatV1.15B25,2013-08-02 03:27:00,
2013-08-01 22:32:00,66.9,64.8,29.81,SE,146,9.0,13.0,93,0.12,,,0.73,0,WeatherCatV1.15B25,2013-08-02 03:32:00,
2013-08-01 22:36:00,66.7,64.6,29.81,SSE,168,3.0,12.0,93,0.08,,,0.74,0,WeatherCatV1.15B25,2013-08-02 03:36:00,
2013-08-01 22:42:00,66.3,64.2,29.82,SSE,161,11.0,11.0,93,0.08,,,0.74,0,WeatherCatV1.15B25,2013-08-02 03:42:00,
2013-08-01 22:47:00,66.1,64.0,29.81,SSE,148,12.0,15.0,93,0.05,,,0.74,0,WeatherCatV1.15B25,2013-08-02 03:47:00,
2013-08-01 22:52:00,65.9,63.8,29.81,South,189,11.0,11.0,93,0.04,,,0.74,0,WeatherCatV1.15B25,2013-08-02 03:52:00,
2013-08-01 22:57:00,66.0,63.9,29.82,South,191,2.0,4.0,93,0.00,,,0.74,0,WeatherCatV1.15B25,2013-08-02 03:57:00,
2013-08-01 23:01:00,65.9,63.8,29.83,South,185,3.0,10.0,93,0.00,,,0.74,0,WeatherCatV1.15B25,2013-08-02 04:01:00,
2013-08-01 23:06:00,66.0,63.9,29.82,South,179,8.0,8.0,93,0.00,,,0.74,0,WeatherCatV1.15B25,2013-08-02 04:06:00,
2013-08-01 23:11:00,65.9,63.8,29.81,SW,221,3.0,14.0,93,0.00,,,0.75,0,WeatherCatV1.15B25,2013-08-02 04:11:00,
2013-08-01 23:16:00,65.7,63.6,29.80,SSW,206,9.0,13.0,93,0.00,,,0.75,0,WeatherCatV1.15B25,2013-08-02 04:16:00,
2013-08-01 23:21:00,65.3,62.9,29.80,South,169,5.0,14.0,92,0.00,,,0.75,0,WeatherCatV1.15B25,2013-08-02 04:21:00,
2013-08-01 23:26:00,65.1,62.7,29.80,SSE,150,3.0,12.0,92,0.00,,,0.75,0,WeatherCatV1.15B25,2013-08-02 04:26:00,
2013-08-01 23:31:00,65.0,62.3,29.80,SSW,199,9.0,13.0,91,0.00,,,0.75,0,WeatherCatV1.15B25,2013-08-02 04:31:00,
2013-08-01 23:36:00,64.8,61.8,29.78,SSE,154,4.0,9.0,90,0.00,,,0.75,0,WeatherCatV1.15B25,2013-08-02 04:36:00,
2013-08-01 23:41:00,64.7,61.7,29.78,SSE,157,6.0,15.0,90,0.00,,,0.75,0,WeatherCatV1.15B25,2013-08-02 04:41:00,
2013-08-01 23:46:00,64.9,61.9,29.78,SW,218,17.0,19.0,90,0.00,,,0.75,0,WeatherCatV1.15B25,2013-08-02 04:46:00,
2013-08-01 23:51:00,65.3,62.3,29.75,South,184,6.0,19.0,90,0.00,,,0.75,0,WeatherCatV1.15B25,2013-08-02 04:51:00,
2013-08-01 23:56:00,65.9,62.9,29.75,SW,229,12.0,15.0,90,0.00,,,0.76,0,WeatherCatV1.15B25,2013-08-02 04:56:00,